sat.trackr.live / text

‹ back to catalog

STARLINK-11369 [DTC]

NORAD 62095 · 2024-220H

PAYLOAD ACTIVE UNKNOWN

§ Identity

Operator
Country
US
Launch date
2024-11-25
Launch site
AFETR
Launch vehicle
Mass (kg)
RCS (m²)

Purposes: comms

External: N2YO · Heavens-Above · Gunter

§ Orbital elements

Epoch: 2026-09-21T13:58:14.645280Z

Period
91.67 min
Inclination
43.0021°
Eccentricity
0.0002127
Mean motion
15.70856834 rev/d
Perigee alt
355.0 km
Apogee alt
357.9 km
Semi-major
6,734.6 km
B*
8.5679e-4
RAAN
302.1497°
Arg perigee
268.3494°
Mean anomaly
91.7130°
Rev number
10,586

§ Raw data

STARLINK-11369 [DTC]1 62095U 24220H   26264.58211395  .00111052  00000+0  85679-3 0  99932 62095  43.0021 302.1497 0002127 268.3494  91.7130 15.70856834105866

JSON: /api/v1/satellites/62095 · /tle

For live sub-satellite position, see the globe view (requires WebGL).

§ Visibility from observer

Set your observer location to see the next 7 days of passes ≥ 10°. The values pass through the URL so the page stays shareable.

No JS? Fill the form by hand. The geolocation button needs JavaScript.